Vero Beach, FL

10:26 PM EDT on April 20, 2018 (GMT -0400)
Vero Beach Municipal

Weather History for KVRB - October, 2013

Change the Weather History Date:

Thursday, October 3, 2013

  Actual Average Record
Temperature  
Mean Temperature 76 °F 79 °F  
Max Temperature 86 °F 86 °F 94 °F (1985)
Min Temperature 66 °F 72 °F 57 °F (1984)
Degree Days  
Heating Degree Days 0 0  
Month to date heating degree days 0 0  
Since 1 July heating degree days 0 0  
Cooling Degree Days 11 14  
Month to date cooling degree days 39 42  
Year to date cooling degree days 2897 2809  
Growing Degree Days 26 (Base 50)    
Moisture  
Dew Point 70 °F    
Average Humidity 81    
Maximum Humidity 100    
Minimum Humidity 61    
Precipitation  
Precipitation 0.00 in 0.20 in 6.09 in (2000)
Month to date precipitation 0.00 0.62  
Year to date precipitation 34.30 42.11  
Sea Level Pressure  
Sea Level Pressure 30.04 in    
Wind  
Wind Speed 4 mph (East)    
Max Wind Speed 13 mph    
Max Gust Speed 17 mph    
Visibility 10 miles    
Events      
T = Trace of Precipitation, MM = Missing Value Source: NWS Daily Summary

Daily Weather History Graph

Daily Weather History Graph

Search for Another Location

Airport or City:

Astronomy

Oct. 03, 2013 Rise Set
Actual Time 7:15 AM EDT 7:05 PM EDT
Civil Twilight 6:52 AM EDT 7:28 PM EDT
Nautical Twilight 6:25 AM EDT 7:55 PM EDT
Astronomical Twilight 5:57 AM EDT 8:22 PM EDT
Moon 5:52 AM EDT (10/3) 6:10 PM EDT (10/3)
Length of Visible Light 12h 36m
Length of Day
11h 49m
Waning Crescent, 2% of the Moon is Illuminated
Oct 3
Waning Crescent
Oct 4
New
Oct 11
First Quarter
Oct 18
Full
Oct 26
Last Quarter

Hourly Weather History & Observations

Time (EDT) Temp. Heat Index Dew Point Humidity Pressure Visibility Wind Dir Wind Speed Gust Speed Precip Events Conditions
12:53 AM 75.0 °F - 68.0 °F 79% 30.06 in 10.0 mi East 3.5 mph - N/A   Clear
1:53 AM 73.0 °F - 68.0 °F 84% 30.05 in 10.0 mi East 3.5 mph - N/A   Clear
2:53 AM 69.1 °F - 66.9 °F 93% 30.03 in 10.0 mi Calm Calm - N/A   Clear
3:53 AM 68.0 °F - 68.0 °F 100% 30.01 in 10.0 mi Calm Calm - N/A   Clear
4:53 AM 66.9 °F - 66.9 °F 100% 29.99 in 10.0 mi Calm Calm - N/A   Clear
5:53 AM 68.0 °F - 66.9 °F 96% 30.00 in 10.0 mi Calm Calm - N/A   Clear
6:53 AM 68.0 °F - 66.9 °F 96% 30.01 in 10.0 mi Calm Calm - N/A   Clear
7:29 AM 71.6 °F - 69.8 °F 94% 30.02 in 10.0 mi Calm Calm - N/A   Mostly Cloudy
7:53 AM 75.0 °F - 72.0 °F 90% 30.03 in 10.0 mi East 4.6 mph - N/A   Mostly Cloudy
8:53 AM 80.1 °F 83.8 °F 72.0 °F 76% 30.04 in 10.0 mi ENE 5.8 mph - N/A   Clear
9:53 AM 82.0 °F 85.9 °F 70.0 °F 67% 30.06 in 10.0 mi ENE 10.4 mph - N/A   Partly Cloudy
10:53 AM 84.9 °F 90.1 °F 71.1 °F 63% 30.08 in 10.0 mi ESE 10.4 mph - N/A   Scattered Clouds
11:53 AM 84.0 °F 88.4 °F 70.0 °F 63% 30.09 in 10.0 mi East 8.1 mph - N/A   Scattered Clouds
12:53 PM 84.9 °F 91.4 °F 73.0 °F 67% 30.07 in 10.0 mi NE 6.9 mph - N/A   Mostly Cloudy
1:53 PM 86.0 °F 91.5 °F 71.1 °F 61% 30.05 in 10.0 mi ESE 8.1 mph - N/A   Partly Cloudy
2:53 PM 82.9 °F 88.0 °F 72.0 °F 69% 30.04 in 10.0 mi East 10.4 mph - N/A   Mostly Cloudy
3:53 PM 84.0 °F 89.6 °F 72.0 °F 67% 30.02 in 10.0 mi East 6.9 mph - N/A   Partly Cloudy
4:53 PM 82.9 °F 87.5 °F 71.1 °F 67% 30.02 in 10.0 mi East 8.1 mph - N/A   Clear
5:53 PM 82.0 °F 86.3 °F 71.1 °F 69% 30.02 in 10.0 mi East 8.1 mph - N/A   Clear
6:53 PM 79.0 °F - 71.1 °F 77% 30.03 in 10.0 mi ENE 3.5 mph - N/A   Clear
7:53 PM 77.0 °F - 71.1 °F 82% 30.03 in 10.0 mi ENE 3.5 mph - N/A   Clear
8:53 PM 75.9 °F - 71.1 °F 85% 30.04 in 10.0 mi ENE 3.5 mph - N/A   Clear
9:53 PM 75.0 °F - 70.0 °F 84% 30.06 in 10.0 mi Calm Calm - N/A   Clear
10:53 PM 73.0 °F - 71.1 °F 93% 30.06 in 10.0 mi Calm Calm - N/A   Clear